GW3031 Weather Reports


Display with metric or nautical units.
time (UTC)temp
F
wind
direction
speed
MPH
gust
MPH
rain 1hr
in
rain 24hr
in
rain mn
in
humidity
%
barometer
mb
20260505183108 84 114 1.0 10.0 0.00 0.00 0.00 34 1009.8
20260505181612 85 0 0.0 13.0 0.00 0.00 0.00 36 1009.9
20260505180100 85 0 0.0 5.0 0.00 0.00 0.00 34 1010.1
20260505174602 84 0 0.0 4.0 0.00 0.00 0.00 36 1010.4
20260505173100 84 0 0.0 8.0 0.00 0.00 0.00 38 1010.4
20260505171601 83 0 1.0 11.0 0.00 0.00 0.00 37 1010.6
20260505170058 84 0 0.0 4.0 0.00 0.00 0.00 39 1010.6
20260505164603 83 0 0.0 4.0 0.00 0.00 0.00 39 1010.8
20260505163100 83 0 0.0 3.0 0.00 0.00 0.00 39 1011.2
20260505161601 82 127 0.0 10.0 0.00 0.00 0.00 43 1011.3
20260505153122 80 0 0.0 4.0 0.00 0.00 0.00 45 1011.6
20260505151601 79 0 0.0 3.0 0.00 0.00 0.00 47 1011.7
20260505140108 74 0 0.0 3.0 0.00 0.00 0.00 51 1011.9
20260505130106 68 0 0.0 3.0 0.00 0.00 0.00 56 1011.7
20260505124614 66 0 0.0 4.0 0.00 0.00 0.00 58 1012.0
20260505123105 64 0 0.0 1.0 0.00 0.00 0.00 59 1011.9
20260505121609 63 0 0.0 3.0 0.00 0.00 0.00 61 1011.9
20260505120113 62 0 0.0 1.0 0.00 0.00 0.00 63 1011.9
20260505113116 60 0 0.0 5.0 0.00 0.00 0.00 63 1011.5
20260505111608 60 0 0.0 6.0 0.00 0.00 0.00 62 1011.5
20260505110110 60 0 0.0 8.0 0.00 0.00 0.00 62 1011.1
20260505101558 60 0 0.0 5.0 0.00 0.00 0.00 62 1010.9
20260505094558 60 0 0.0 2.0 0.00 0.00 0.00 62 1010.8
20260505093106 60 0 0.0 3.0 0.00 0.00 0.00 62 1010.6
20260505091559 60 0 0.0 1.0 0.00 0.00 0.00 62 1010.5
20260505090059 60 0 0.0 4.0 0.00 0.00 0.00 63 1010.4
20260505084602 60 0 0.0 3.0 0.00 0.00 0.00 64 1010.4
20260505083105 60 0 0.0 3.0 0.00 0.00 0.00 64 1010.6
20260505081600 60 0 0.0 6.0 0.00 0.00 0.00 65 1010.5
20260505080112 59 0 0.0 3.0 0.00 0.00 0.00 66 1010.4
20260505074559 59 0 0.0 3.0 0.00 0.00 0.00 67 1010.3
20260505073102 60 0 0.0 1.0 0.00 0.00 0.00 66 1010.4
20260505071601 61 0 0.0 1.0 0.00 0.00 0.00 65 1010.3
20260505070058 61 0 0.0 1.0 0.00 0.00 0.00 64 1010.2
20260505064602 62 0 0.0 2.0 0.00 0.00 0.00 63 1010.2
20260505063103 62 0 0.0 3.0 0.00 0.00 0.00 63 1010.1
20260505061559 62 0 0.0 2.0 0.00 0.00 0.00 64 1010.1
20260505060100 62 0 0.0 1.0 0.00 0.00 0.00 64 1010.2
20260505054600 62 0 0.0 1.0 0.00 0.00 0.00 64 1010.2
20260505053116 62 0 0.0 1.0 0.00 0.00 0.00 64 1010.2
20260505051600 63 0 0.0 1.0 0.00 0.00 0.00 63 1010.2
20260505050110 63 0 0.0 1.0 0.00 0.00 0.00 62 1010.2
20260505041600 64 0 0.0 2.0 0.00 0.00 0.00 60 1010.4
20260505040100 64 0 0.0 3.0 0.00 0.00 0.00 59 1010.4
20260505034618 65 0 0.0 1.0 0.00 0.00 0.00 58 1010.3
20260505033107 65 0 0.0 1.0 0.00 0.00 0.00 58 1010.3
20260505031559 66 0 0.0 2.0 0.00 0.00 0.00 56 1010.3
20260505024600 66 0 0.0 2.0 0.00 0.00 0.00 54 1010.1
20260505023103 67 0 0.0 1.0 0.00 0.00 0.00 53 1010.1
20260505021600 68 0 0.0 3.0 0.00 0.00 0.00 52 1010.2
20260505020106 68 0 0.0 3.0 0.00 0.00 0.00 51 1010.1
20260505014559 68 0 0.0 5.0 0.00 0.00 0.00 50 1010.0
20260505013102 68 0 0.0 1.0 0.00 0.00 0.00 50 1009.8
20260505011612 69 0 0.0 2.0 0.00 0.00 0.00 50 1009.5
20260505010101 69 0 0.0 1.0 0.00 0.00 0.00 49 1009.3
20260505004610 70 0 0.0 1.0 0.00 0.00 0.00 49 1009.4
20260505003059 70 0 0.0 6.0 0.00 0.00 0.00 47 1009.3
20260505001630 71 0 0.0 1.0 0.00 0.00 0.00 47 1009.3
20260505000110 71 0 0.0 2.0 0.00 0.00 0.00 46 1009.2
20260504234559 72 0 0.0 3.0 0.00 0.00 0.00 45 1009.1
20260504233111 72 0 0.0 6.0 0.00 0.00 0.00 44 1009.1
20260504231559 72 0 0.0 3.0 0.00 0.00 0.00 44 1008.9
20260504230059 73 0 0.0 3.0 0.00 0.00 0.00 44 1009.0
20260504224558 73 0 0.0 4.0 0.00 0.00 0.00 42 1008.9
20260504223100 73 0 0.0 4.0 0.00 0.00 0.00 42 1009.0
20260504221559 74 0 0.0 4.0 0.00 0.00 0.00 41 1009.0
20260504214606 75 133 0.0 5.0 0.00 0.00 0.00 39 1008.8
20260504213101 76 0 0.0 14.0 0.00 0.00 0.00 40 1008.7
20260504211600 76 0 0.0 3.0 0.00 0.00 0.00 39 1008.8
20260504210100 77 151 0.0 3.0 0.00 0.00 0.00 39 1008.7
20260504204611 77 109 0.0 5.0 0.00 0.00 0.00 37 1008.9
20260504203104 78 0 0.0 5.0 0.00 0.00 0.00 38 1009.0
20260504201557 78 0 0.0 2.0 0.00 0.00 0.00 37 1009.2
20260504200104 78 0 0.0 8.0 0.00 0.00 0.00 37 1009.4
20260504194606 77 0 0.0 2.0 0.00 0.00 0.00 37 1009.5
20260504193100 77 0 0.0 3.0 0.00 0.00 0.00 37 1009.7
20260504191613 78 0 0.0 3.0 0.00 0.00 0.00 38 1009.9
20260504190059 77 352 0.0 2.0 0.00 0.00 0.00 37 1010.3
20260504184557 77 0 0.0 3.0 0.00 0.00 0.00 38 1010.5